Weather in Semenovka

Russia / Saratov Oblast     51°10′51″N   47°36′22″E
temp.,
°C
wind,
m/s
gust,
m/s
humid.,
%
clouds,
%
prec.,
mm/h
press.,
hPa
HPBL,
m
18 may, wed
wed1801:00+8wnw51184100 0.3 1005588
04:00+9wsw7117999 0.6 1004901
07:00+9wsw8137810 0.0 1005979
10:00+10w81076100 0.1 10061317
13:00+11w796917 0.4 10071219
16:00+14wnw7957100 0.6 10091802
19:00+14wnw5859100 0.1 1010777
22:00+10w337558 0.1 101234
19 may, thu
thu1901:00+9w337676 0.0 101227
04:00+8wnw228226 0.0 101217
07:00+10w23735 0.0 1013147
10:00+15wsw3452100 0.0 10131122
13:00+17w5644100 0.0 10122236
16:00+17wnw5647100 0.0 10121847
19:00+14nw3564100 0.0 1012153
22:00+12nw2264100 0.0 101234
20 may, fri
fri2001:00+11nnw3568100 0.0 101194
04:00+9n2577100 0.0 1010158
07:00+9nnw4680100 0.0 1010375
10:00+12nnw6760100 0.2 10101425
13:00+13nnw91045100 0.0 10102350
16:00+13nnw91038100 0.0 10112503
19:00+11nnw810495 0.0 10121942
22:00+7nw511645 0.0 1013387
21 may, sat
sat2101:00+5wnw410730 0.0 1013286
04:00+4wnw49791 0.0 1012197
07:00+6nw477123 0.0 1013358
10:00+10nw464971 0.0 10111394
13:00+13wnw343677 0.0 10092340
16:00+14nw3433100 0.0 10072392
19:00+13n344174 0.0 1007999
22:00+8nnw356320 0.0 100784
22 may, sun
sun2201:00+6n34715 0.0 100762
04:00+5n23785 0.0 100733
07:00+7nnw4671100 0.0 1008291
10:00+11nnw45475 0.0 10071435
13:00+13nw5639100 0.0 10062236
16:00+14nnw443692 0.0 10062232
19:00+13n444696 0.0 1007632
22:00+9ne3457100 0.0 100780